Regional Weather Roundup
Issued by NWS

Home | Current Version | Previous Version | Text Only | Print | Product List | Glossary Off
Versions: 1 2 3 4 5 6 7 8 9 10 11 12 13 14 15 16 17 18 19 20 21 22 23 24 25 26 27 28 29 30 31 32 33 34 35 36 37 38 39 40 41 42 43 44 45 46 47 48 49 50

000
ASUS43 KMKX 052211
RWRWI

WISCONSIN REGIONAL WEATHER ROUNDUP
NATIONAL WEATHER SERVICE MILWAUKEE/SULLIVAN WI
500 PM CDT TUE MAY 05 2015

NOTE: "FAIR" INDICATES FEW OR NO CLOUDS BELOW 12,000 FEET WITH NO
SIGNIFICANT WEATHER AND/OR OBSTRUCTIONS TO VISIBILITY.

WIZ001-002-006>008-014>016-023>028-052300-
NORTHWEST WISCONSIN

CITY           SKY/WX    TMP DP  RH WIND       PRES   REMARKS
SUPERIOR ARPT  SUNNY     54  33  44 E9        30.17F
ASHLAND        SUNNY     62  40  44 N12       30.18F
HAYWARD        SUNNY     72  25  17 S13       30.16F
SIREN          SUNNY     74  32  21 SE16G23   30.14F
CUMBERLAND     MOSUNNY   68  28  22 S14       30.16F
RICE LAKE      MOSUNNY   70  30  22 E16       30.18F
CHETEK         MOSUNNY   68  34  28 E12G20    30.18F
LADYSMITH      MOSUNNY   70  27  20 S12G20    30.20F
EAU CLAIRE     CLOUDY    67  31  26 SE10G21   30.17F
MENOMONIE      CLOUDY    65  32  28 SE12G20   30.18F
NEW RICHMOND   PTSUNNY   69  30  23 SE13G22   30.16S
OSCEOLA        PTSUNNY   69  39  32 E14G22    30.17F
$$

WIZ003>005-009-010-017-018-052300-
NORTH CENTRAL WISCONSIN

CITY           SKY/WX    TMP DP  RH WIND       PRES   REMARKS
MANITOWISH WTR SUNNY     70  31  23 S10G16    30.20F
ARBOR VITAE    SUNNY     72  31  22 S9        30.20F
WOODRUFF       SUNNY     72  31  22 S9        30.20F
RHINELANDER    SUNNY     68  27  21 S12G18    30.23F
EAGLE RIVER    SUNNY     69  26  19 S9        30.21F
LAND O LAKES   SUNNY     71  26  18 SW9G17    30.21F
PHILLIPS       SUNNY     69  29  22 SE10G18   30.20F
TOMAHAWK       MOSUNNY   68  26  20 S3        30.22F
MEDFORD        PTSUNNY   65  29  25 SE13      30.22S
MERRILL        PTSUNNY   66  26  22 SE10G17   30.23F
$$

WIZ029-030-035-036-043>047-052300-
CENTRAL WISCONSIN

CITY           SKY/WX    TMP DP  RH WIND       PRES   REMARKS
WAUSAU         PTSUNNY   66  22  18 SE13      30.21F
MOSINEE        MOSUNNY   63  25  23 E10G20    30.24F
MARSHFIELD     CLOUDY    64  32  30 SE15      30.22F
STEVENS POINT  CLOUDY    62  31  30 SE12      30.23F
WAUPACA        CLOUDY    64  29  26 E9        30.25F
WAUTOMA        CLOUDY    62  45  53 E9        30.24F
WISC RAPIDS    CLOUDY    63  36  36 SE12G18   30.24F
CAMP DOUGLAS   LGT RAIN  55  55 100 E10       30.21F
$$

WIZ011>013-019>022-031-037>040-048>050-052300-
NORTHEAST WISCONSIN

CITY           SKY/WX    TMP DP  RH WIND       PRES   REMARKS
ANTIGO         MOSUNNY   62  29  28 SE13      30.25S
SHAWANO        PTSUNNY   69  20  15 SE7       30.26F
OCONTO         PTSUNNY   64  28  26 E8        30.26F
STURGEON BAY   PTSUNNY   61  25  25 E7        30.30F
GREEN BAY      CLOUDY    65  20  17 SE10      30.26F
MANITOWOC      CLOUDY    57  37  47 SE5       30.27F
APPLETON       PTSUNNY   63  34  34 SE10      30.26F
CLINTONVILLE   CLOUDY    63  16  16 SE9       30.25F
OSHKOSH        CLOUDY    59  46  62 SE9       30.24F
$$

WIZ032>034-041-042-053>061-052300-
SOUTHWEST WISCONSIN

CITY           SKY/WX    TMP DP  RH WIND       PRES   REMARKS
LA CROSSE      LGT RAIN  57  53  86 SE8       30.19F
SPARTA         DRIZZLE   57  49  72 E13       30.22F
VIROQUA        CLOUDY    53  53 100 E15       30.19F
BOSCOBEL       CLOUDY    56  53  90 NE6       30.19F FOG
PRAIRIE DU CHI CLOUDY    54  53  96 E8        30.17F
PLATTEVILLE    CLOUDY    56  54  94 E14       30.18S
$$

WIZ056-057-062-063-064-067-068-052300-
SOUTH CENTRAL WISCONSIN

CITY           SKY/WX    TMP DP  RH WIND       PRES   REMARKS
REEDSBURG      CLOUDY    54  52  92 E8        30.22F
BARABOO/DELLS  NOT AVBL
LONE ROCK      LGT RAIN  56  51  84 E10       30.20F
MINERAL POINT  CLOUDY    55  54  94 E10       30.19F
MADISON        CLOUDY    56  51  84 E12       30.21F
MIDDLETON      CLOUDY    57  53  86 E7        30.22S
WATERTOWN      CLOUDY    55  51  88 E12       30.22F
MONROE         CLOUDY    54  52  94 E10       30.20S
JANESVILLE     CLOUDY    52  50  93 E12G17    30.21F
$$

WIZ051-052-058>065-066-070>072-052300-
SOUTHEAST WISCONSIN

CITY           SKY/WX    TMP DP  RH WIND       PRES   REMARKS
MILWAUKEE      CLOUDY    48  43  82 NE8       30.25F
WAUKESHA       CLOUDY    48  45  87 E10       30.25F
MILWAUKEE/TIMM CLOUDY    50  43  76 E9        30.26F
RACINE         LGT RAIN  47  44  90 NE10      30.26F
BURLINGTON     CLOUDY    47  45  95 E8        30.23F
KENOSHA        CLOUDY    48  46  93 E9        30.24F
FOND DU LAC    LGT RAIN  56  48  74 SE7       30.25F
SHEBOYGAN      CLOUDY    54  44  69 SE5       30.25F
WEST BEND      CLOUDY    52  43  71 E9        30.25F
JUNEAU         CLOUDY    55  47  75 E9        30.24S
$$

LSZ147-162-052300-
LAKE SUPERIOR

STATION/POSITION TIME  TEMP    WIND        PRES    WAVE
                       AIR SEA DIR/SP/G            HT/PER
                 (UTC) (F)     (DEG/KT/KT) (MB)    (FT/S)
W MID LAKE BUOY  2150   40 36   60/ 10/ 12 1023.8F
DEVILS ISLAND    2200   43      90/ 11/ 12 1022.9F
PORT WING        2100   47      20/ 19/ 23 1021.0
SAXON HARBOR     2140   52      50/  2/  8 1021.7F
$$

LMZ867-665-643>646-052300-
LAKE MICHIGAN

STATION/POSITION TIME  TEMP    WIND        PRES    WAVE
                       AIR SEA DIR/SP/G            HT/PER
                 (UTC) (F)     (DEG/KT/KT) (MB)    (FT/S)
CHAMBERS ISLAND  2100   50     350/  5/  7 1025.7F
NORTHPORT PIER   2100   49     120/  3/  4 1025.7F
SISTER BAY       2102   70     120/  7/ 11   N/A
KEWAUNEE LAKESHO 2100   47      40/  4/  6 1024.8F
SHEBOYGAN LAKESH 2200   46     360/  6/  7 1025.3F
PORT WASHINGTON  2100   49      30/  4/  7 1025.7F
ATWATER BUOY     2100   45     360/  6/  8 1026.2F
MILWAUKEE LAKESH 2100   46      30/  8/ 10   N/A
KENOSHA   LAKESH 2200   45      20/  7/  9 1023.7F
$$

TC  - TEMPERATURE IN CELSIUS
VSB - VISIBILITY IN STATUTE MILES
WCI - WIND CHILL INDEX
HX  - HEAT INDEX




USA.gov is the U.S. government's official web portal to all federal, state and local government web resources and services.